(413371) = 2004 GN39 = 2009 OQ10 = 2012 CL22

Discovered at Siding Spring on 2004-04-15 by Siding Spring Survey.

Orbit

Orbit type: Main Belt

Note: WebGL enabled browser required.

epoch2024-03-31.0
epoch JD2460400.5
perihelion date2022-07-14.92387
perihelion JD2459775.42387
argument of perihelion (°)359.38991
ascending node (°)292.07721
inclination (°)11.96394
eccentricity0.1491212
perihelion distance (AU)2.2740616
Tisserand w.r.t. Jupiter3.3
ΔV w.r.t. Earth (km/sec)10.2
semimajor axis (AU)2.6726034
mean anomaly (°)141.00515
mean daily motion (°/day)0.22558080
aphelion distance (AU)3.071
period (years)4.37
P-vector [x]0.36618147
P-vector [y]-0.85287653
P-vector [z]-0.37217303
Q-vector [x]0.91049984
Q-vector [y]0.24582518
Q-vector [z]0.33250568
absolute magnitude16.28
phase slope0.15
uncertainty0
referenceMPEC 2024-C107
observations used311
oppositions14
arc length (days)7239
first opposition used2004
last opposition used2024
residual rms (arc-secs)0.76
perturbers coarse indicatorM-v
perturbers precise indicator003Ek
first observation date used2004-04-15.0
last observation date used2024-02-09.0
computer nameMPCLINUX
Minimum Orbit Intersection Distances (in AU)
for orbit epoch: 2460200.5, reference: E2024-CA7
Mercury1.82532
Venus1.55027
Earth1.26089
Mars0.84673
Jupiter2.11503
Saturn6.00393
Uranus15.5235
Neptune27.0209

Observations

315 total observations over interval: 2004 04 15.46836 – 2024 02 09.260225
These data are available for download (format description).

Date (UT) J2000 RA J2000 Dec Magn Location Ref
2004 04 15.46836 13 45 56.16 -31 30 35.7 19.5 R E12 – Siding Spring Survey MPS 105231
2004 04 15.48310 13 45 55.25 -31 30 32.8 19.0 R E12 – Siding Spring Survey MPS 105231
2004 04 15.49792 13 45 54.41 -31 30 30.1 19.6 R E12 – Siding Spring Survey MPS 105231
2004 04 15.51297 13 45 53.42 -31 30 26.8 18.7 R E12 – Siding Spring Survey MPS 105231
2004 04 16.46830 13 44 58.53 -31 27 02.3 19.4 R E12 – Siding Spring Survey MPS 105231
2004 04 16.47517 13 44 58.17 -31 27 00.3 19.8 R E12 – Siding Spring Survey MPS 105231
2004 04 16.48207 13 44 57.79 -31 26 59.8 19.2 R E12 – Siding Spring Survey MPS 105231
2004 04 16.48898 13 44 57.34 -31 26 57.8 20.0 R E12 – Siding Spring Survey MPS 105231
2004 04 21.55763 13 40 02.63 -31 05 01.7 19.2 R E12 – Siding Spring Survey MPS 105231
2004 04 21.56907 13 40 02.14 -31 04 58.0 17.0 R E12 – Siding Spring Survey MPS 105231
2004 04 21.58049 13 40 01.29 -31 04 55.2 20.1 R E12 – Siding Spring Survey MPS 105231
2004 04 21.59197 13 40 00.60 -31 04 50.2 17.8 R E12 – Siding Spring Survey MPS 105231
2005 09 01.28042 23 58 47.27 +18 39 59.3 19.4 R 699 – Lowell Observatory-LONEOS MPS 411541
2005 09 01.29952 23 58 46.35 +18 40 01.7   699 – Lowell Observatory-LONEOS MPS 411541
2005 09 01.31866 23 58 45.48 +18 40 01.6   699 – Lowell Observatory-LONEOS MPS 411541
2005 09 01.33783 23 58 44.42 +18 40 03.1   699 – Lowell Observatory-LONEOS MPS 411541
2006 12 24.17714 06 32 53.83 +28 24 57.6 21.4 V 691 – Steward Observatory, Kitt Peak-Spacewatch MPS 411541
2006 12 24.19453 06 32 52.73 +28 24 55.5 21.7 V 691 – Steward Observatory, Kitt Peak-Spacewatch MPS 411541
2006 12 24.21186 06 32 51.57 +28 24 53.7 21.3 V 691 – Steward Observatory, Kitt Peak-Spacewatch MPS 411541
2009 05 28.42235 21 03 18.00 -17 50 24.3 20.8 V G96 – Mt. Lemmon Survey MPS 411541
2009 05 28.42792 21 03 18.07 -17 50 21.6 20.5 V G96 – Mt. Lemmon Survey MPS 411541
2009 05 28.43360 21 03 18.28 -17 50 18.7 20.8 V G96 – Mt. Lemmon Survey MPS 411541
2009 05 28.43919 21 03 18.43 -17 50 16.4 20.6 V G96 – Mt. Lemmon Survey MPS 411541
2009 06 15.42575 21 07 17.22 -15 50 20.1 20.0 V G96 – Mt. Lemmon Survey MPS 411541
2009 06 15.43289 21 07 17.14 -15 50 17.6 20.2 V G96 – Mt. Lemmon Survey MPS 411541
2009 06 15.44020 21 07 17.14 -15 50 15.5 20.3 V G96 – Mt. Lemmon Survey MPS 411541
2009 06 15.44713 21 07 17.11 -15 50 12.4 20.3 V G96 – Mt. Lemmon Survey MPS 411541
2009 07 27.29018 20 40 59.91 -12 37 17.9 19.0 V 703 – Catalina Sky Survey MPS 290318
2009 07 27.29859 20 40 59.34 -12 37 16.7 19.2 V 703 – Catalina Sky Survey MPS 290318
2009 07 27.30694 20 40 58.83 -12 37 14.6 19.0 V 703 – Catalina Sky Survey MPS 290318
2009 07 27.31542 20 40 58.29 -12 37 14.1 18.7 V 703 – Catalina Sky Survey MPS 290318
2009 07 29.26212 20 39 00.68 -12 31 21.7 18.9 V 703 – Catalina Sky Survey MPS 290318
2009 07 29.26728 20 39 00.25 -12 31 19.8 19.5 V 703 – Catalina Sky Survey MPS 290318
2009 07 29.27243 20 38 59.96 -12 31 19.8 19.3 V 703 – Catalina Sky Survey MPS 290318
2009 07 29.27759 20 38 59.67 -12 31 18.2 19.2 V 703 – Catalina Sky Survey MPS 290318
2009 07 29.28469 20 38 59.20 -12 31 17.2 19.4 V 703 – Catalina Sky Survey MPS 290318
2009 07 29.28834 20 38 58.99 -12 31 16.8 19.2 V 703 – Catalina Sky Survey MPS 290318
2009 07 29.29188 20 38 58.70 -12 31 16.0 19.2 V 703 – Catalina Sky Survey MPS 290318
2009 07 29.29554 20 38 58.52 -12 31 14.9 19.5 V 703 – Catalina Sky Survey MPS 290318
2009 07 30.27199 20 37 59.44 -12 28 23.5 19.2 V 703 – Catalina Sky Survey MPS 290318
2009 07 30.27646 20 37 59.16 -12 28 23.2 19.3 V 703 – Catalina Sky Survey MPS 290318
2009 07 30.28098 20 37 58.87 -12 28 22.3 19.1 V 703 – Catalina Sky Survey MPS 290318
2009 07 30.28556 20 37 58.54 -12 28 21.5 19.4 V 703 – Catalina Sky Survey MPS 290318
2010 11 17.29385 04 27 19.33 +35 03 25.8 20.1 V G96 – Mt. Lemmon Survey MPS 411541
2010 11 17.30056 04 27 18.93 +35 03 24.5 20.0 V G96 – Mt. Lemmon Survey MPS 411541
2010 11 17.30742 04 27 18.46 +35 03 23.6 19.8 V G96 – Mt. Lemmon Survey MPS 411541
2010 11 17.31420 04 27 18.00 +35 03 21.8 20.2 V G96 – Mt. Lemmon Survey MPS 411541
2012 02 13.36837 09 27 05.211 +05 23 17.88 20.9 g F51 – Pan-STARRS 1, Haleakala MPS 411733
2012 02 13.39534 09 27 03.618 +05 23 20.81 20.6 r F51 – Pan-STARRS 1, Haleakala MPS 411733
2012 02 13.40786 09 27 02.875 +05 23 22.17 20.4 r F51 – Pan-STARRS 1, Haleakala MPS 411733
2012 02 14.35379 09 26 08.557 +05 25 04.07 20.6 w F51 – Pan-STARRS 1, Haleakala MPS 411734
2012 02 14.36802 09 26 07.722 +05 25 05.65 20.7 w F51 – Pan-STARRS 1, Haleakala MPS 411734
2012 02 14.38220 09 26 06.885 +05 25 07.24 20.7 w F51 – Pan-STARRS 1, Haleakala MPS 411734
2012 02 14.39639 09 26 06.042 +05 25 08.80 20.7 w F51 – Pan-STARRS 1, Haleakala MPS 411734
2014 10 15.19226 01 47 23.95 +30 54 30.8 20.3 V 703 – Catalina Sky Survey MPS 538886
2014 10 15.19776 01 47 23.60 +30 54 30.0 19.9 V 703 – Catalina Sky Survey MPS 538886
2014 10 15.20326 01 47 23.36 +30 54 28.0 19.6 V 703 – Catalina Sky Survey MPS 538886
2014 10 15.20876 01 47 23.02 +30 54 27.4 19.9 V 703 – Catalina Sky Survey MPS 538886
2014 10 26.31272 01 36 33.64 +29 56 04.9 20.4 r G45 – Space Surveillance Telescope, Atom Site MPS 558633
2014 10 26.32388 01 36 32.98 +29 56 01.0 20.0 r G45 – Space Surveillance Telescope, Atom Site MPS 558633
2014 10 26.33500 01 36 32.33 +29 55 56.5 20.2 r G45 – Space Surveillance Telescope, Atom Site MPS 558633
2014 10 26.34613 01 36 31.65 +29 55 51.5 20.3 r G45 – Space Surveillance Telescope, Atom Site MPS 558633
2014 10 26.35722 01 36 31.00 +29 55 47.5 19.5 r G45 – Space Surveillance Telescope, Atom Site MPS 558633
2014 10 26.37429 01 36 29.98 +29 55 40.7 20.0 r G45 – Space Surveillance Telescope, Atom Site MPS 558633
2014 10 29.18788 01 33 51.83 +29 36 54.3 20.1 V 703 – Catalina Sky Survey MPS 542216
2014 10 29.19338 01 33 51.57 +29 36 53.0 19.6 V 703 – Catalina Sky Survey MPS 542216
2014 10 29.19888 01 33 51.22 +29 36 52.9 19.6 V 703 – Catalina Sky Survey MPS 542216
2014 10 29.20438 01 33 50.94 +29 36 49.6 19.8 V 703 – Catalina Sky Survey MPS 542216
2014 11 16.11309 01 20 06.92 +27 16 25.9 19.7 R H15 – ISON-NM Observatory, Mayhill MPS 547621
2014 11 16.12333 01 20 06.53 +27 16 19.7 19.4 R H15 – ISON-NM Observatory, Mayhill MPS 547621
2014 11 16.13473 01 20 06.08 +27 16 14.3 19.4 R H15 – ISON-NM Observatory, Mayhill MPS 547621
2014 11 16.14493 01 20 05.77 +27 16 09.2 19.7 R H15 – ISON-NM Observatory, Mayhill MPS 547621
2014 11 25.13049 01 16 03.44 +26 03 06.0 19.7 V G96 – Mt. Lemmon Survey MPS 549612
2014 11 25.13781 01 16 03.28 +26 03 02.3 19.9 V G96 – Mt. Lemmon Survey MPS 549612
2014 11 25.14512 01 16 03.11 +26 02 59.0 19.9 V G96 – Mt. Lemmon Survey MPS 549612
2014 11 25.15245 01 16 02.97 +26 02 55.5 19.7 V G96 – Mt. Lemmon Survey MPS 549612
2014 11 27.06257 01 15 28.97 +25 48 01.3 19.9 V G96 – Mt. Lemmon Survey MPS 551536
2014 11 27.07094 01 15 28.83 +25 47 57.3 19.7 V G96 – Mt. Lemmon Survey MPS 551536
2014 11 27.07931 01 15 28.64 +25 47 53.8 19.9 V G96 – Mt. Lemmon Survey MPS 551536
2014 11 27.08767 01 15 28.52 +25 47 49.8 20.1 V G96 – Mt. Lemmon Survey MPS 551536
2014 11 28.20757 01 15 11.479 +25 39 15.95 20.1 i F51 – Pan-STARRS 1, Haleakala MPS 551536
2014 11 28.22063 01 15 11.259 +25 39 09.93 20.1 i F51 – Pan-STARRS 1, Haleakala MPS 551536
2014 11 28.23364 01 15 11.052 +25 39 04.12 19.9 i F51 – Pan-STARRS 1, Haleakala MPS 551536
2014 11 28.24668 01 15 10.832 +25 38 58.13 20.1 i F51 – Pan-STARRS 1, Haleakala MPS 551536
2015 12 18.42732 08 14 14.68 +20 25 07.0 21.5 V G96 – Mt. Lemmon Survey MPS 663923
2015 12 18.43261 08 14 14.45 +20 25 06.5 21.3 V G96 – Mt. Lemmon Survey MPS 663923
2015 12 18.43789 08 14 14.24 +20 25 06.6 21.7 V G96 – Mt. Lemmon Survey MPS 663923
2015 12 18.44318 08 14 14.04 +20 25 06.0 22.4 V G96 – Mt. Lemmon Survey MPS 663923
2016 01 04.35355 08 00 22.056 +20 15 37.68 21.0 w F51 – Pan-STARRS 1, Haleakala MPS 668283
2016 01 04.36394 08 00 21.442 +20 15 37.41 21.0 w F51 – Pan-STARRS 1, Haleakala MPS 668283
2016 01 04.37433 08 00 20.837 +20 15 37.27 21.1 w F51 – Pan-STARRS 1, Haleakala MPS 668283
2016 01 04.38474 08 00 20.218 +20 15 37.02 21.1 w F51 – Pan-STARRS 1, Haleakala MPS 668283
2016 01 16.46802 07 48 08.168 +20 10 33.14 20.6 w F51 – Pan-STARRS 1, Haleakala MPS 673910
2016 01 16.47889 07 48 07.477 +20 10 32.90 20.7 w F51 – Pan-STARRS 1, Haleakala MPS 673910
2016 01 16.48971 07 48 06.784 +20 10 32.58 20.5 w F51 – Pan-STARRS 1, Haleakala MPS 673910
